Simultaneous Nadir Overpasses (SNOs) Predictions

Prediction of SNOs between FY3D and TERRA Satellite Orbit:

Table of predicted SNOs for the next 14.0 days since TLE Epoch: 7/1/2022
Index Date (FY3D) Time (FY3D) Lat,Lon (FY3D) SZA (FY3D ) Date (TERRA) Time (TERRA) Lat,Lon (TERRA) SZA (TERRA ) Distance(km) Time Diff (sec)
1 07/02/2022 09:12:13 71.69, 41.66 48.58 07/02/2022 09:13:20 71.71, 41.72 48.59 3.01 67
2 07/02/2022 10:02:55 -71.59,-150.83 131.53 07/02/2022 10:02:50 -71.59,-150.85 131.53 1.04 5
3 07/02/2022 10:53:33 71.11, 17.33 47.99 07/02/2022 10:52:23 71.17, 16.11 48.06 44.34 70
4 07/05/2022 00:39:15 -71.71, -10.11 131.19 07/05/2022 00:40:17 -71.71, -10.05 131.19 2.11 62
5 07/05/2022 01:30:00 71.60, 157.41 48.70 07/05/2022 01:29:44 71.61, 157.44 48.72 2.36 16
6 07/05/2022 02:20:32 -70.97, -34.17 131.93 07/05/2022 02:19:23 -71.01, -35.91 131.88 62.96 69
7 07/07/2022 16:06:20 71.67, -61.78 49.05 07/07/2022 16:07:13 71.67, -61.86 49.05 2.86 53
8 07/07/2022 16:57:03 -71.62, 105.64 131.01 07/07/2022 16:56:42 -71.61, 105.66 131.02 1.19 21
9 07/10/2022 07:33:23 -71.70,-113.56 130.62 07/10/2022 07:34:10 -71.72,-113.55 130.60 2.65 47
10 07/10/2022 08:24:09 71.63, 53.86 49.32 07/10/2022 08:23:37 71.61, 53.92 49.30 2.71 32
11 07/12/2022 23:00:29 71.71,-165.34 49.76 07/12/2022 23:01:05 71.71,-165.31 49.76 1.14 36
12 07/12/2022 23:51:11 -71.61, 2.17 130.35 07/12/2022 23:50:35 -71.60, 2.13 130.35 1.40 36
13 07/15/2022 14:27:30 -71.69, 142.96 129.86 07/15/2022 14:28:02 -71.70, 142.90 129.86 2.33 32
14 07/15/2022 15:18:16 71.63, -49.62 50.08 07/15/2022 15:17:28 71.64, -49.55 50.09 2.57 48



Historial Predications of SNOs between FY3D and TERRA
